CZ-3C DEB, 40197

Orbit data source: Space-Track

CZ-3C DEB, 40197 is space debris in HEO originally from a launch on Fri, 24 Feb 2012 UTC launched from the Xichang Space Center, China (XSC). Debris objects in space refer to the collection of defunct objects orbiting the Earth. Examples of debris include non-operational satellites, rocket bodies, and fragments generated from explosions, collisions, or faulty payload assembly.

Loading next visibility...
Identifier
40197, 2012-008G
Orbit
HEO
Country
Flag of CNCN / PRC
Related business
Manufacturer
CALT
Mission
Spacecraft
Bus & Motor
Unknown
Mass
Unknown
Launch date (UTC)
2012-02-24 (14 years ago)
Launch vehicle
Unknown
Launch site
Xichang Space Center, China (XSC)
Object type
Payload
Rocket body
Debris
Shape & HBR
Unknown shape, 0.2 m
Radar Cross Section
Medium (>0.1 m² and <1 m²)

Expand to show TLE details & history
Last TLE update: 16 hours ago

TLE from 16 hours ago
0 CZ-3C DEB
1 40197U 12008G   26235.65897865  .00000040  00000-0  00000-0 0  9998
2 40197  20.2291 229.7454 6978902 189.3947 142.9323  2.19849212102469
Epoch: 2026-08-23T15:48Z
TLE epoch observation values (Epoch: 2026-08-23T15:48:55.755Z)
Latitude
-0.00004°
Longitude
20.52755°
Altitude
34,738.845 km
Speed
1.853 km/s
True Right ascension
15h 18m 50s
True Declination
0° 00' 00"
Sunlit
Object was in daylight at epoch
Visualization orbit readout
Latitude
Unknown
Longitude
Unknown
Altitude
Unknown
Speed
Unknown
Apparent Right ascension
Unknown
Apparent Declination
Unknown
Sunlit
N/A
Visualization observer readout
Local Sidereal Time
23:03:53
Azimuth
Unknown
Elevation
Unknown
Doppler factor
Unknown
Orbital elements
Apogee altitude
36,047.681 km
Perigee altitude
1,170.794 km
Semi-major axis
24,987.374 km
Eccentricity
0.69789
Inclination
20.2291°
RAAN
229.7454°
Arg. of periapsis
189.3947°
True anomaly
170.6018°
Mean anomaly
142.9323°
Eccentric anomaly
157.94619°
Mean motion
0.54949 °/min
Orbital period
655.15 mins
BSTAR
0
Loading maneuver chart data...
Computing Atmospheric mass density...
Loading historical data...
Loading historical data...
Loading historical data...
Loading historical data...
Loading historical data...
Loading historical data...
Loading historical data...

Documentation

Showing up to 5 results
|